HSNN4 Weather Reports


Display with metric or nautical units.
time (UTC)temp
F
wind
direction
speed
MPH
gust
MPH
rain 1hr
in
rain 24hr
in
rain mn
in
humidity
%
barometer
mb
20260510203021 74 295 0.0 0.0 0.00 0.00 0.00 40 1011.4
20260510203008 74 136 2.0 5.0 0.00 0.13 0.00 49 1013.0
20260510201520 74 305 0.0 0.0 0.00 0.00 0.00 40 1011.2
20260510201508 74 104 0.0 4.0 0.00 0.13 0.00 50 1012.8
20260510200020 75 184 0.0 0.0 0.00 0.00 0.00 37 1011.4
20260510200008 75 162 3.0 10.0 0.00 0.13 0.00 47 1013.0
20260510194518 75 183 0.0 0.0 0.00 0.00 0.00 38 1011.5
20260510194506 76 135 2.0 5.0 0.00 0.13 0.00 47 1013.1
20260510193021 75 294 0.0 0.0 0.00 0.00 0.00 43 1011.4
20260510193005 76 133 2.0 5.0 0.00 0.13 0.00 52 1013.0
20260510191516 75 309 0.0 0.0 0.00 0.00 0.00 43 1011.7
20260510191502 76 132 2.0 9.0 0.00 0.13 0.00 52 1013.2
20260510190014 75 243 0.0 0.0 0.00 0.00 0.00 45 1011.5
20260510184600 75 136 1.0 6.0 0.00 0.16 0.00 55 1013.3
20260510184510 74 269 0.0 0.0 0.00 0.00 0.00 47 1011.7
20260510183058 75 120 1.0 7.0 0.00 0.16 0.00 55 1013.4
20260510183009 74 201 0.0 0.0 0.00 0.00 0.00 47 1011.8
20260510181556 75 70 0.0 3.0 0.00 0.16 0.00 57 1013.4
20260510181504 73 214 0.0 0.0 0.00 0.00 0.00 54 1011.7
20260510180107 75 84 0.0 0.0 0.00 0.16 0.00 60 1013.5
20260510180004 73 203 0.0 0.0 0.00 0.00 0.00 55 1011.7
20260510174554 75 88 0.0 2.0 0.00 0.16 0.00 61 1013.3
20260510174503 72 142 0.0 0.0 0.00 0.00 0.00 55 1011.5
20260510173050 75 76 0.0 0.0 0.00 0.16 0.00 60 1013.3
20260510173001 73 133 0.0 0.0 0.00 0.00 0.00 55 1011.5
20260510171621 70 151 0.0 0.0 0.00 0.00 0.00 61 1011.6
20260510171547 73 67 0.0 0.0 0.00 0.16 0.00 65 1013.4
20260510170057 69 104 0.0 0.0 0.00 0.00 0.00 62 1011.8
20260510170050 71 79 0.0 0.0 0.00 0.16 0.00 67 1013.5
20260510164600 68 123 0.0 0.0 0.00 0.00 0.00 65 1011.9
20260510164550 71 77 0.0 0.0 0.00 0.16 0.00 70 1013.7
20260510163057 67 143 0.0 0.0 0.00 0.00 0.00 66 1012.2
20260510163038 69 82 0.0 1.0 0.00 0.16 0.00 69 1014.0
20260510161547 66 167 0.0 0.0 0.00 0.00 0.00 70 1012.3
20260510161534 68 97 0.0 0.0 0.00 0.16 0.00 73 1014.2
20260510160043 65 110 0.0 0.0 0.00 0.00 0.00 70 1012.2
20260510160032 67 84 0.0 0.0 0.00 0.16 0.00 72 1014.1
20260510154544 67 105 0.0 0.0 0.00 0.16 0.00 74 1014.2
20260510154538 64 188 0.0 0.0 0.00 0.00 0.00 73 1012.3
20260510153039 63 156 0.0 0.0 0.00 0.00 0.00 75 1012.5
20260510153027 66 61 0.0 0.0 0.00 0.16 0.00 77 1014.4
20260510151528 62 157 0.0 0.0 0.00 0.00 0.00 80 1012.4
20260510151523 64 86 0.0 1.0 0.00 0.16 0.00 81 1014.3
20260510150025 60 109 0.0 0.0 0.00 0.00 0.00 82 1012.6
20260510150019 62 79 0.0 2.0 0.00 0.16 0.00 83 1014.4
20260510144522 61 58 0.0 0.0 0.00 0.16 0.00 84 1014.3
20260510144520 59 165 0.0 0.0 0.00 0.00 0.00 83 1012.4
20260510143014 58 155 0.0 0.0 0.00 0.00 0.00 85 1012.5
20260510143011 60 82 0.0 0.0 0.00 0.16 0.00 87 1014.3
20260510141513 58 169 0.0 0.0 0.00 0.00 0.00 85 1012.5
20260510141508 59 79 0.0 0.0 0.00 0.16 0.00 87 1014.3
20260510140007 57 126 0.0 0.0 0.00 0.00 0.00 86 1012.3
20260510140005 59 86 0.0 2.0 0.00 0.16 0.00 88 1014.1
20260510134505 58 68 0.0 1.0 0.00 0.16 0.00 88 1014.1
20260510134503 57 161 0.0 0.0 0.00 0.00 0.00 87 1012.2
20260510133004 59 86 0.0 0.0 0.00 0.16 0.00 89 1014.1
20260510133001 57 153 0.0 0.0 0.00 0.00 0.00 88 1012.3
20260510131600 57 147 0.0 0.0 0.00 0.00 0.00 89 1012.2
20260510131501 58 84 0.0 0.0 0.00 0.16 0.00 91 1014.0
20260510130122 57 78 0.0 0.0 0.00 0.16 0.00 93 1013.6
20260510130058 56 173 0.0 0.0 0.00 0.00 0.00 90 1011.8
20260510124603 56 78 0.0 1.0 0.00 0.16 0.00 93 1013.9
20260510123056 56 167 0.0 0.0 0.00 0.00 0.00 91 1011.7
20260510121555 55 48 0.0 0.0 0.00 0.00 0.00 91 1011.5
20260510121551 56 96 0.0 0.0 0.00 0.16 0.00 95 1013.3
20260510120055 55 23 0.0 0.0 0.00 0.00 0.00 91 1011.4
20260510120053 55 96 0.0 0.0 0.00 0.16 0.00 95 1013.3
20260510114617 55 23 0.0 0.0 0.00 0.00 0.00 92 1011.2
20260510114547 55 95 0.0 0.0 0.00 0.16 0.00 95 1013.0
20260510113057 54 23 0.0 0.0 0.00 0.00 0.00 92 1011.3
20260510113053 54 96 0.0 0.0 0.00 0.16 0.00 96 1013.1
20260510111552 54 22 0.0 0.0 0.00 0.00 0.00 92 1010.9
20260510111544 54 96 0.0 0.0 0.00 0.16 0.00 96 1012.8
20260510110043 53 96 0.0 0.0 0.00 0.16 0.00 96 1012.5
20260510104550 53 0 0.0 0.0 0.00 0.00 0.00 92 1010.7
20260510104540 53 101 0.0 0.0 0.00 0.16 0.00 96 1012.5
20260510103053 53 0 0.0 0.0 0.00 0.00 0.00 92 1010.7
20260510103041 53 102 0.0 0.0 0.00 0.16 0.00 96 1012.6
20260510101601 53 0 0.0 0.0 0.00 0.00 0.00 92 1010.7
20260510101544 53 102 0.0 0.0 0.00 0.16 0.00 96 1012.6
20260510100053 53 0 0.0 0.0 0.00 0.00 0.00 92 1010.7
20260510100038 53 102 0.0 0.0 0.00 0.16 0.00 96 1012.6
20260510094551 53 359 0.0 0.0 0.00 0.00 0.00 92 1010.9
20260510094538 53 115 0.0 0.0 0.00 0.16 0.00 96 1012.8
20260510093048 53 359 0.0 0.0 0.00 0.00 0.00 92 1011.1
20260510093038 53 116 0.0 0.0 0.00 0.16 0.00 96 1012.9
20260510091548 53 0 0.0 0.0 0.00 0.00 0.00 92 1011.2
20260510091542 53 117 0.0 1.0 0.00 0.16 0.00 96 1013.1
20260510090045 53 359 0.0 0.0 0.00 0.00 0.00 92 1011.2
20260510090039 53 118 0.0 2.0 0.00 0.16 0.00 96 1013.0
20260510084603 53 330 0.0 0.0 0.00 0.00 0.00 92 1011.2
20260510084541 53 117 0.0 1.0 0.00 0.16 0.00 96 1013.1
20260510083045 53 343 0.0 0.0 0.00 0.00 0.00 92 1010.9
20260510083032 53 119 0.0 2.0 0.00 0.16 0.00 96 1012.8
20260510081544 53 15 0.0 0.0 0.00 0.00 0.00 92 1010.5
20260510081530 53 110 0.0 0.0 0.00 0.16 0.00 96 1012.3
20260510080056 53 15 0.0 0.0 0.00 0.00 0.00 92 1010.2
20260510080033 53 110 0.0 0.0 0.00 0.16 0.00 96 1012.1
20260510074547 53 15 0.0 0.0 0.00 0.00 0.00 92 1010.2
20260510074531 53 110 0.0 0.0 0.00 0.16 0.00 96 1012.0
20260510073050 53 14 0.0 0.0 0.00 0.00 0.00 92 1010.1
20260510073029 53 110 0.0 0.0 0.00 0.16 0.00 96 1012.0
20260510071543 53 15 0.0 0.0 0.00 0.00 0.00 92 1010.2
20260510071526 53 110 0.0 0.0 0.00 0.16 0.00 96 1012.0
20260510070049 53 14 0.0 0.0 0.00 0.00 0.00 92 1010.2
20260510070025 53 110 0.0 1.0 0.00 0.16 0.00 96 1012.2
20260510064546 53 45 0.0 0.0 0.00 0.00 0.00 92 1010.2
20260510064538 53 87 0.0 0.0 0.00 0.16 0.00 96 1012.1
20260510063039 53 44 0.0 0.0 0.00 0.00 0.00 92 1010.0
20260510063026 53 87 0.0 0.0 0.00 0.16 0.00 96 1011.9
20260510061541 53 44 0.0 0.0 0.00 0.00 0.00 91 1009.7
20260510061521 52 88 0.0 0.0 0.00 0.16 0.00 96 1011.7
20260510060044 53 44 0.0 0.0 0.00 0.00 0.00 91 1009.8
20260510060019 52 87 0.0 0.0 0.00 0.16 0.00 96 1011.8
20260510054534 52 43 0.0 0.0 0.00 0.00 0.00 91 1010.1
20260510054518 51 87 0.0 0.0 0.00 0.16 0.00 96 1012.0
20260510053035 51 87 0.0 0.0 0.00 0.16 0.00 96 1011.9
20260510053032 52 43 0.0 0.0 0.00 0.00 0.00 91 1010.0
20260510051527 51 42 0.0 0.0 0.00 0.00 0.00 91 1010.0
20260510051515 50 87 0.0 0.0 0.00 0.16 0.00 96 1011.9
20260510050035 51 44 0.0 0.0 0.00 0.00 0.00 90 1010.2
20260510050015 50 87 0.0 0.0 0.00 0.16 0.00 95 1012.1
20260510044524 52 44 0.0 0.0 0.00 0.00 0.00 90 1010.2
20260510044511 51 87 0.0 0.0 0.00 0.16 0.00 96 1012.1
20260510043017 52 44 0.0 0.0 0.00 0.00 0.00 90 1010.2
20260510043010 51 87 0.0 0.0 0.00 0.16 0.00 95 1012.2
20260510041519 52 44 0.0 0.0 0.00 0.00 0.00 90 1010.2
20260510041506 51 87 0.0 0.0 0.00 0.16 0.00 95 1012.1
20260510040012 52 44 0.0 0.0 0.00 0.00 0.01 90 1010.1
20260510040004 52 87 0.0 0.0 0.00 0.16 0.00 95 1012.0
20260510034509 52 42 0.0 0.0 0.00 0.00 0.01 89 1009.8
20260510034504 51 88 0.0 0.0 0.00 0.16 0.16 95 1011.7
20260510033007 52 45 0.0 0.0 0.00 0.00 0.01 89 1009.8
20260510033002 52 87 0.0 0.0 0.00 0.16 0.16 95 1011.7
20260510031508 53 45 0.0 0.0 0.00 0.00 0.01 89 1009.8
20260510031502 52 87 0.0 0.0 0.00 0.16 0.16 95 1011.7
20260510030007 52 44 0.0 0.0 0.00 0.00 0.01 89 1009.8
20260510030003 52 87 0.0 0.0 0.00 0.16 0.16 95 1011.7
20260510024602 52 88 0.0 0.0 0.00 0.16 0.16 95 1011.7
20260510024505 52 44 0.0 0.0 0.00 0.00 0.01 89 1009.9
20260510023058 53 87 0.0 0.0 0.00 0.16 0.16 94 1011.9
20260510023004 53 43 0.0 0.0 0.00 0.00 0.01 88 1010.0
20260510021604 53 88 0.0 0.0 0.00 0.16 0.16 94 1011.8
20260510021512 53 44 0.0 0.0 0.00 0.00 0.01 88 1009.8
20260510020059 53 87 0.0 0.0 0.00 0.16 0.16 94 1011.8
20260510020003 54 43 0.0 0.0 0.00 0.00 0.01 88 1009.9
20260510014602 53 87 0.0 0.0 0.00 0.16 0.16 93 1011.7
20260510014502 53 45 0.0 0.0 0.00 0.00 0.01 88 1009.8
20260510013123 54 43 0.0 0.0 0.00 0.00 0.01 87 1009.8
20260510013112 53 87 0.0 0.0 0.00 0.16 0.16 93 1011.8
20260510013001 54 44 0.0 0.0 0.00 0.00 0.01 87 1009.8
20260510011600 54 43 0.0 0.0 0.00 0.00 0.01 87 1009.6
20260510011555 53 88 0.0 0.0 0.00 0.16 0.16 93 1011.5
20260510010055 53 87 0.0 0.0 0.00 0.16 0.16 93 1011.4
20260510004601 54 44 0.0 0.0 0.00 0.00 0.01 86 1009.5
20260510004551 53 87 0.0 0.0 0.00 0.16 0.16 92 1011.4
20260510003105 55 44 0.0 0.0 0.00 0.00 0.01 86 1009.2
20260510003102 54 87 0.0 0.0 0.00 0.16 0.16 92 1011.2
20260510001608 55 45 0.0 0.0 0.00 0.00 0.01 87 1009.2
20260510001550 55 88 0.0 0.0 0.00 0.16 0.16 92 1011.1
20260510000058 56 44 0.0 0.0 0.00 0.00 0.01 86 1009.1
20260509234556 56 44 0.0 0.0 0.00 0.00 0.01 86 1009.1
20260509234547 55 87 0.0 0.0 0.00 0.16 0.16 90 1011.0
20260509233101 56 43 0.0 0.0 0.00 0.00 0.01 85 1009.0
20260509233047 56 88 0.0 0.0 0.00 0.16 0.16 90 1010.8
20260509231603 56 45 0.0 0.0 0.00 0.00 0.01 85 1009.1
20260509231546 56 87 0.0 0.0 0.00 0.16 0.16 90 1011.0
20260509230055 57 35 0.0 0.0 0.00 0.00 0.01 85 1009.2
20260509230043 56 86 0.0 0.0 0.02 0.16 0.16 90 1011.1
20260509224555 57 37 0.0 0.0 0.00 0.00 0.00 85 1009.3
20260509224545 56 84 0.0 0.0 0.06 0.16 0.16 89 1011.2
20260509223055 57 35 0.0 0.0 0.00 0.00 0.00 83 1009.6
20260509223045 56 84 0.0 0.0 0.11 0.16 0.16 88 1011.4
20260509221552 57 37 0.0 0.0 0.00 0.00 0.00 82 1009.7
20260509221540 56 107 0.0 0.0 0.12 0.16 0.16 87 1011.6
20260509220052 57 37 0.0 0.0 0.00 0.00 0.00 80 1009.7
20260509220043 57 107 0.0 0.0 0.09 0.13 0.13 86 1011.7
20260509214556 57 107 0.0 0.0 0.06 0.10 0.10 84 1011.8
20260509214552 58 37 0.0 0.0 0.00 0.00 0.00 78 1010.0
20260509213105 58 36 0.0 0.0 0.00 0.00 0.00 77 1009.7
20260509213040 58 109 0.0 0.0 0.01 0.05 0.05 83 1011.5
20260509211554 58 53 0.0 0.0 0.00 0.00 0.00 75 1010.1
20260509211538 58 110 0.0 1.0 0.00 0.04 0.04 81 1012.0
20260509210052 58 62 0.0 0.0 0.00 0.00 0.00 75 1009.6
20260509210045 58 105 0.0 1.0 0.01 0.04 0.04 82 1011.4
20260509204550 58 338 0.0 0.0 0.00 0.00 0.00 75 1009.7
20260509204539 58 117 0.0 0.0 0.01 0.04 0.04 81 1011.5